星链-5271 (STARLINK-5271 )

导读 | 豆包AI

STARLINK-5271是美国SpaceX公司星链星座中的一颗低轨互联网卫星,属于Group 4-16批次,由猎鹰9号火箭于2022年10月28日发射。卫星总质量约297千克,运行在约548公里高度的近地轨道,主要为全球提供高速低延迟宽带互联网接入服务,是星链大规模星座组网部署的组成部分,助力实现全球无缝网络覆盖。

Basic Information
目录编号:
54194
目录名称:
STARLINK-5271
国际标识:
2022-141AP
轨道中心:
EARTH
卫星名称:
星链-5271
卫星全名:
星链-5271 (STARLINK-5271 )
卫星状态:
在轨 (已飞行1234 天)
发射日期:
2022-10-28 UTC
国别 :
美国 (US)
星等 :
--
Orbit Information
数据来源 国际轨道数据 AOE轨道数据
星历时间 2026-03-15T08:33:55+0800
12小时前
查看轨道信息
2026-03-12T17:00:00+0800
3天前
查看轨道信息
半长轴 6917.788km 6917.951km
偏心率 0.0001407 0.0001403
轨道倾角 53.218° 53.218°
近地点辐角 81.942° 87.609°
升交点赤经 330.142° 342.033°
平近点角 278.173° 278.152°
近地点 538.677km 538.843km
远地点 540.625km 540.785km
周期 95.436分钟 95.439分钟
每日圈数 15.088705 15.088172
Detailed Information
固有亮度:
5
最大亮度:
2.5
卫星平台:
Starlink v1.5
覆盖范围:
全球
运营商:
太空探索技术公司
运营商所在国:
美国
制造商(研发单位):
太空探索技术公司
制造商所在国:
美国
使用方式:
暂无
Satellite Introduction
星链(Starlink)计划是由太空探索技术公司(SpaceX)提出的一个巨型低轨卫星互联网星座项目,计划在2019年至2024年间在太空搭建由约1.2万颗卫星组成的“星链”网络,其中1584颗将部署在地球上空550千米处的近地轨道,并从2020年开始工作。该卫星仍在工作。
2D Orbit Map
3D Orbit Map
Orbit Altitude Analysis Chart
Orbit Inclination Analysis Chart
Orbit Comprehensive Analysis Chart
View Comprehensive Chart